Regional Weather Roundup
Issued by NWS Charleston, WV

Home | Current Version | Previous Version | Text Only | Print | Product List | Glossary Off
Versions: 1 2 3 4 5 6 7 8 9 10 11 12 13 14 15 16 17 18 19 20 21 22 23 24 25 26 27 28 29 30 31 32 33 34 35 36 37 38 39 40 41 42 43 44 45 46 47 48 49 50

000
ASUS41 KRLX 121910
RWRRLX
West Virginia Regional Weather Roundup
National Weather Service Charleston WV
200 PM EST FRI FEB 12 2016

Note: "fair" indicates few or no clouds below 12,000 feet with no
significant weather and/or obstructions to visibility.

WVZ003-122000-
Northern Panhandle of West Virginia

CITY           SKY/WX    TMP DP  RH WIND       PRES   REMARKS
WHEELING       CLOUDY    21   6  52 W7        30.00F
$$

WVZ009-122000-
Northwest West Virginia

CITY           SKY/WX    TMP DP  RH WIND       PRES   REMARKS
PARKERSBURG    FLURRIES  24  10  55 SW8       30.08F
$$

WVZ006-122000-
Western West Virginia

CITY           SKY/WX    TMP DP  RH WIND       PRES   REMARKS
HUNTINGTON     CLOUDY    31   7  36 VRB6      30.06F
$$

WVZ015-122000-
West Central West Virginia

CITY           SKY/WX    TMP DP  RH WIND       PRES   REMARKS
CHARLESTON     CLOUDY    30  11  45 NW8       30.05F
$$

WVZ022-031-122000-
North Central West Virginia

CITY           SKY/WX    TMP DP  RH WIND       PRES   REMARKS
CLARKSBURG     LGT SNOW  21  13  71 W7        30.02F
MORGANTOWN     LGT SNOW  19  10  68 SW8       30.03F WCI   9
$$

WVZ025-035-042-045-122000-
Southern West Virginia

CITY           SKY/WX    TMP DP  RH WIND       PRES   REMARKS
BECKLEY        LGT SNOW  25  18  74 SW9       29.94F
LOGAN          CLOUDY    28  14  54 CALM      29.99F
BLUEFIELD      LGT SNOW  26  23  88 W12G17    29.94F FOG
LEWISBURG      LGT SNOW  28  21  76 SW8       29.95F
$$

WVZ047-122000-
Northern Mountains of West Virginia

CITY           SKY/WX    TMP DP  RH WIND       PRES   REMARKS
ELKINS         FLURRIES  25  13  60 NW7       29.95F
$$

WVZ052-122000-
Eastern Panhandle of West Virginia

CITY           SKY/WX    TMP DP  RH WIND       PRES   REMARKS
MARTINSBURG    CLOUDY    28   6  39 S6        30.05F
PETERSBURG     CLOUDY    30  13  48 CALM      29.99F
$$



USA.gov is the U.S. government's official web portal to all federal, state and local government web resources and services.